SCP
0 0 0 0 0 0 0 0 0 0 0 0 0 0 0 0 0 0 0 0 0 0 -0 -0 -0 -0 -0 0 0 0 0 0 0 0 0 0 0 0 0 0 0 0 0
0 0 0 0 0 0 0 0 0 0 0 0 0 0 0 0 0 0 0 0 0 0 0 -0 -0 -0 -0 0 0 0 0 0 0 0 -0 0 0 0 0 0 0 0 -0
0 0 0 0 0 0 0 0 0 0 0 0 0 0 0 0 0 0 0 0 0 0 0 0 -0 -0 -0 0 0 0 0 0 0 0 0 -0 0 0 0 0 0 0 0
0 0 0 0 0 0 0 0 0 0 0 0 0 0 0 0 0 0 0 0 0 0 0 0 -0 -0 -0 0 0 0 0 0 0 0 -0 0 0 0 0 0 0 0 0
0 0 0 0 0 0 0 0 0 0 0 0 0 0 0 0 0 0 0 0 0 0 0 0 0 -0 -0 -0 0 0 0 0 0 0 0 0 0 0 0 0 0 0 0
0 0 0 0 0 0 0 0 0 0 0 0 0 0 0 0 0 0 0 0 0 0 0 0 0 0 -0 -0 -0 -0 0 0 0 0 0 0 0 0 0 0 0 0 0
0 0 0 0 0 0 0 0 0 0 0 0 0 0 0 0 0 0 0 0 0 0 0 0 0 0 0 -0 -0 -0 0 0 0 0 0 0 0 0 0 0 0 0 0
0 0 0 0 0 0 0 0 0 0 0 0 0 0 0 0 0 0 0 0 0 0 0 0 0 0 0 0 0 -0 -0 0 0 0 0 0 0 0 0 0 0 0 0
0 0 0 0 0 0 0 0 0 0 0 0 0 0 0 0 0 0 0 0 0 0 0 0 0 0 0 0 0 -0 -0 -0 0 0 0 0 0 0 0 0 0 0 0
0 0 0 0 0 0 0 0 0 0 0 0 0 0 0 0 0 0 0 0 0 0 0 0 0 0 0 0 0 0 0 -0 0 0 0 0 0 0 0 0 0 0 0
0 0 0 0 0 0 0 0 0 0 0 0 0 0 0 0 0 0 0 0 0 0 0 0 0 0 0 0 0 0 0 0 0 0 0 0 0 0 0 0 0 0 0
0 0 0 0 0 0 0 0 0 0 0 0 0 0 0 0 0 0 0 0 0 0 0 0 0 0 0 0 0 0 0 0 0 0 0 0 0 0 0 0 0 0 0
0 0 0 0 0 0 0 0 0 0 0 0 0 0 0 0 0 0 0 0 0 0 0 0 0 0 0 0 0 0 0 0 0 0 0 0 0 0 0 0 0 0 0
0 0 0 0 0 0 0 0 0 0 0 0 0 0 0 0 0 0 0 0 0 0 0 0 0 0 0 0 0 0 0 0 0 0 -0 0 0 0 0 0 0 0 0
0 0 0 0 0 0 0 0 0 0 0 0 0 0 0 0 0 0 0 0 0 0 0 0 0 0 0 0 0 0 0 0 0 0 0 -0 0 0 0 0 0 0 0
0 0 0 0 0 0 0 0 0 0 0 0 0 0 0 0 0 0 0 0 0 0 0 0 0 0 0 0 -0 0 0 0 0 0 0 0 0 0 0 0 0 0 0
0 0 0 0 0 0 0 0 0 0 0 0 0 0 0 0 0 0 0 0 0 0 0 0 0 0 0 -0 -0 -0 0 0 0 0 0 0 0 0 0 0 0 0 0
0 0 0 0 0 0 0 0 0 0 0 0 0 0 0 0 0 0 0 0 0 0 0 0 0 0 0 -0 -0 -0 0 0 0 0 0 0 0 0 0 0 0 0 0
0 0 0 0 0 0 0 0 0 0 0 0 0 0 0 0 0 0 0 0 0 0 0 0 0 0 0 -0 -0 -0 0 0 0 0 0 0 0 0 0 0 0 0 0
0 0 0 0 0 0 0 0 0 0 0 0 0 0 0 0 0 0 0 0 0 0 0 0 0 0 0 -0 -0 -0 0 0 0 0 0 0 0 0 0 0 0 0 0
0 0 0 0 0 0 0 0 0 0 0 0 0 0 0 0 0 0 0 0 0 0 0 0 0 0 0 0 -0 -0 0 0 0 0 0 0 0 0 0 0 0 0 0
0 0 0 0 0 0 0 0 0 0 0 0 0 0 0 0 0 0 0 0 0 0 0 0 0 0 0 0 0 -0 -0 -0 0 0 0 0 0 0 0 0 0 0 0
0 0 0 0 0 0 0 0 0 0 0 0 0 0 0 0 0 0 0 0 0 0 0 0 0 0 0 0 0 0 -0 0 0 0 0 0 0 0 0 0 0 0 0
0 0 0 0 0 0 0 0 0 0 0 0 0 0 0 0 0 0 0 0 0 0 0 0 0 0 0 0 0 -0 -0 0 0 0 0 0 0 0 0 0 0 0 0
0 0 0 0 0 0 0 0 0 0 0 0 0 0 0 0 0 0 0 0 0 0 0 0 0 0 0 0 -0 -0 0 0 0 0 0 0 0 0 0 0 0 0 0
0 0 0 0 0 0 0 0 0 0 0 0 0 0 0 0 0 0 0 0 0 0 0 0 0 0 0 0 0 0 0 -0 -0 0 0 0 0 0 0 0 0 0 0
Wind_Speed_500mb
9 6 12 16 19 21 23 27 32 37 42 49 51 50 46 45 52 53 56 60 62 62 67 68 65 67 76 58 35 33 38 32 28 28 16 15 22 29 30 19 36 40 39
10 6 7 12 15 23 24 25 31 35 39 41 43 43 39 39 48 52 53 56 60 63 65 62 67 59 67 74 55 37 37 37 27 24 24 12 24 29 27 33 39 33 25
15 8 4 6 16 19 24 24 29 35 38 41 44 45 42 42 47 49 51 54 55 58 61 63 59 58 55 72 75 50 42 34 33 22 12 7 5 14 28 33 38 41 48
18 12 6 8 13 18 21 22 26 33 36 39 44 44 45 48 47 51 52 51 51 54 55 58 62 57 55 56 73 69 51 38 26 19 25 26 21 8 10 11 24 37 34
24 15 8 6 11 18 19 23 26 31 34 36 39 40 44 44 46 48 49 49 51 51 54 56 59 61 57 52 51 68 63 55 36 23 21 29 20 20 27 15 20 19 30
23 15 7 2 8 14 17 22 24 28 32 34 37 40 43 45 46 47 50 52 53 55 52 54 56 57 60 60 54 54 59 55 56 35 16 11 20 7 11 12 21 27 22
26 20 12 6 6 12 15 18 22 26 29 34 36 40 41 42 44 47 49 52 54 57 57 54 54 56 56 57 57 50 53 59 59 62 34 23 12 17 23 27 25 24 24
34 24 16 11 6 10 14 18 22 26 32 34 35 37 38 39 40 43 45 47 50 52 54 52 47 50 53 54 55 56 48 46 53 65 51 28 20 21 13 22 28 23 23
32 28 21 14 8 11 13 17 22 29 34 34 33 35 36 37 39 39 41 43 44 46 49 50 50 45 48 51 52 55 56 49 47 50 58 39 21 13 12 22 17 20 11
38 32 25 17 11 12 14 17 22 29 35 33 35 36 39 40 40 40 40 41 41 42 44 47 48 49 45 46 50 52 56 55 49 49 55 56 38 19 17 17 15 21 21
46 37 30 21 16 15 14 18 23 31 33 36 39 40 42 45 46 46 45 43 42 40 40 43 46 48 48 44 44 48 51 56 50 48 49 52 52 33 14 11 15 18 17
48 42 34 23 20 18 16 19 23 30 35 41 43 44 45 46 47 48 49 49 46 41 38 38 40 42 45 45 43 44 48 52 57 46 47 48 54 49 27 15 16 23 28
52 47 38 29 26 21 18 20 25 29 36 41 39 39 39 42 46 49 50 48 45 43 38 35 35 37 38 41 42 38 41 45 50 52 40 44 49 54 47 26 13 9 10
58 51 42 34 32 25 23 20 24 29 33 31 31 35 39 43 47 50 52 51 47 42 36 33 31 32 32 33 38 38 36 39 43 49 45 34 42 47 53 36 24 8 3
61 55 47 41 37 29 23 20 23 26 24 22 27 32 38 42 46 49 50 48 45 40 34 31 28 27 28 29 32 34 34 35 38 43 47 42 29 33 46 41 28 18 10
69 61 51 46 40 32 23 18 20 21 16 19 22 29 36 42 46 47 48 48 43 38 33 28 26 25 26 28 28 28 29 31 34 40 43 47 44 30 32 42 33 24 19
74 67 60 52 41 31 22 17 17 14 11 14 21 27 33 39 44 46 46 46 44 38 33 29 26 23 24 30 33 26 20 23 28 32 37 42 47 43 29 33 34 26 23
74 67 61 56 42 33 23 16 15 11 7 11 18 24 30 36 41 42 44 44 44 41 38 31 28 24 24 27 35 30 20 18 18 23 29 34 42 45 42 27 32 33 26
72 66 57 51 40 32 24 17 17 11 3 7 13 19 27 33 37 41 43 46 44 41 38 33 30 28 25 26 34 34 25 25 20 17 21 28 33 39 43 32 23 27 29
71 67 59 52 44 33 24 21 19 13 5 2 8 16 24 29 35 39 42 44 46 44 41 36 30 31 29 26 33 34 28 25 24 17 17 20 25 32 38 36 31 25 26
69 65 60 50 40 34 27 27 22 16 9 4 4 12 18 25 32 35 38 42 45 45 45 42 37 32 31 26 33 36 31 29 27 23 21 18 19 26 31 34 27 27 23
71 67 62 54 43 36 33 31 25 20 13 7 2 8 13 20 26 30 34 39 42 45 47 48 46 45 40 32 32 36 33 31 28 24 25 22 16 21 25 27 21 19 19
74 68 61 52 45 40 39 34 29 23 17 11 4 4 9 15 21 26 30 34 38 42 46 49 51 52 50 44 41 37 37 31 29 22 23 22 18 12 15 22 22 20 20
75 69 63 54 48 45 43 36 32 27 20 15 8 2 4 9 16 22 27 30 34 37 42 47 51 54 54 59 62 54 43 31 29 27 21 19 13 8 11 14 19 18 20
72 66 58 52 49 49 45 38 34 30 24 20 12 5 2 6 11 16 22 26 30 34 38 42 46 53 56 56 50 50 48 40 38 30 17 13 7 1 3 9 16 19 15
71 65 56 52 52 50 45 42 38 34 27 23 16 10 6 5 8 12 16 21 25 26 28 32 37 41 40 43 48 50 46 34 31 14 11 7 3 2 6 5 10 17 19
Wind_Direction_500mb
259 317 330 346 358 347 354 351 358 5 5 8 9 10 4 360 0 6 8 9 8 5 3 0 1 12 10 0 339 1 339 310 300 292 292 272 282 279 263 250 215 214 238
201 266 322 347 341 332 346 349 1 0 3 6 6 6 2 359 358 360 3 6 8 8 7 4 4 11 13 8 4 354 354 326 303 280 301 289 278 260 256 262 257 255 251
199 228 301 340 311 334 347 353 358 353 357 358 359 356 356 358 358 357 359 2 4 7 5 7 6 6 12 12 7 5 360 357 325 265 266 303 281 292 257 253 258 264 262
203 218 252 326 324 346 343 345 347 350 352 352 353 356 357 358 358 356 358 358 1 4 6 6 8 7 9 11 8 8 3 360 3 325 305 276 260 266 278 273 271 261 264
201 215 246 342 327 346 344 337 343 347 348 348 351 355 356 356 354 356 0 2 2 3 4 7 7 10 8 11 7 6 5 5 355 350 338 306 280 267 260 284 292 289 262
198 211 244 346 330 338 335 338 344 345 343 347 349 352 354 354 353 357 359 2 2 1 3 5 8 9 9 8 16 0 4 3 9 354 337 347 307 293 255 286 289 294 296
195 197 205 220 293 327 335 338 344 340 340 344 346 348 352 353 354 358 1 0 2 2 3 2 4 8 9 9 11 12 359 5 7 7 340 315 331 294 282 281 272 278 274
194 206 200 214 276 310 325 334 335 334 335 338 340 342 346 350 352 355 356 358 359 1 2 3 0 2 6 7 11 13 14 2 1 1 1 340 312 296 270 278 277 276 268
196 206 202 215 256 285 310 321 326 326 329 335 337 339 341 343 345 346 347 349 351 356 358 1 3 2 2 5 8 11 11 13 2 4 4 4 334 301 312 264 261 273 269
197 203 209 218 241 262 293 307 315 321 326 331 333 334 334 335 334 335 334 335 339 344 350 356 1 4 1 360 6 9 11 12 7 6 2 9 6 314 285 284 273 250 243
202 205 208 216 233 249 275 294 309 320 324 326 327 327 328 325 324 323 322 321 323 328 336 346 354 360 2 359 2 6 13 12 11 4 8 5 12 5 309 290 261 250 241
203 205 209 215 224 241 261 284 305 315 321 322 327 329 330 331 332 329 321 313 307 311 319 328 340 351 358 359 2 3 8 14 10 13 7 10 8 17 2 319 271 266 267
194 201 205 212 222 234 250 274 298 313 319 323 332 339 344 348 347 345 341 335 320 303 300 309 321 336 348 355 360 3 5 12 13 11 14 13 10 9 10 4 343 296 254
198 201 203 209 220 228 246 273 297 313 319 329 342 348 348 351 351 348 344 343 338 325 305 300 308 320 334 346 354 2 1 6 14 16 15 19 16 9 7 7 11 344 302
202 205 204 208 219 227 241 268 296 310 319 335 349 352 352 354 355 351 347 345 345 339 326 308 302 310 321 339 349 357 359 360 8 18 19 16 16 18 14 9 20 30 30
205 205 207 210 217 227 236 266 293 303 318 338 357 360 356 357 358 354 351 349 348 345 339 326 318 313 318 322 332 350 358 356 0 9 19 16 15 20 22 15 22 32 36
206 205 207 212 218 224 237 263 284 282 312 345 6 4 359 1 0 358 355 354 355 351 347 341 334 326 320 316 337 335 354 355 354 1 9 16 17 17 28 19 16 28 31
208 207 208 211 212 219 233 252 258 259 303 3 12 5 3 6 4 2 2 3 3 360 355 349 343 342 332 327 351 325 342 342 352 354 2 9 14 14 15 21 19 20 27
211 209 210 210 207 215 230 233 232 238 267 20 15 9 8 9 7 8 10 10 10 11 8 1 351 347 348 337 353 348 336 334 349 343 351 0 11 13 12 18 23 13 19
210 205 203 201 204 214 219 216 216 219 188 51 21 15 14 12 12 13 15 16 17 16 15 11 1 349 346 352 359 355 342 339 336 338 345 359 7 15 12 16 16 18 11
200 198 198 200 202 210 208 207 207 204 182 163 40 25 18 12 17 17 17 21 22 24 23 20 11 356 346 350 4 2 345 339 333 333 332 358 5 14 16 17 23 12 11
188 191 192 195 201 204 203 203 201 197 184 180 98 37 20 16 17 19 22 23 23 25 26 24 22 18 9 1 354 357 353 344 327 324 322 345 5 11 13 19 23 11 20
184 188 193 195 198 200 200 200 202 195 189 190 177 50 18 15 13 16 23 23 23 21 20 20 18 17 15 13 6 355 343 335 329 316 308 324 346 8 8 20 24 24 27
186 188 191 196 199 197 200 198 200 195 192 196 198 176 14 13 10 8 15 18 18 19 16 11 13 11 10 14 3 355 349 331 312 294 296 306 329 355 10 22 35 36 29
188 192 195 199 199 199 200 199 199 199 195 202 209 218 296 357 3 6 6 10 10 12 11 6 5 3 6 6 356 352 345 339 321 301 283 279 285 258 70 38 46 45 35
190 192 196 201 200 201 199 200 199 201 201 209 215 224 250 311 343 1 2 360 1 4 5 2 357 358 358 355 358 355 352 354 343 330 262 258 268 258 68 56 46 53 48
Wind_Speed_850mb
9 6 12 16 19 21 23 27 32 37 42 49 51 50 46 45 52 53 56 60 62 62 67 68 65 67 76 58 35 33 38 32 28 28 16 15 22 29 30 19 36 40 39
10 6 7 12 15 23 24 25 31 35 39 41 43 43 39 39 48 52 53 56 60 63 65 62 67 59 67 74 55 37 37 37 27 24 24 12 24 29 27 33 39 33 25
15 8 4 6 16 19 24 24 29 35 38 41 44 45 42 42 47 49 51 54 55 58 61 63 59 58 55 72 75 50 42 34 33 22 12 7 5 14 28 33 38 41 48
18 12 6 8 13 18 21 22 26 33 36 39 44 44 45 48 47 51 52 51 51 54 55 58 62 57 55 56 73 69 51 38 26 19 25 26 21 8 10 11 24 37 34
24 15 8 6 11 18 19 23 26 31 34 36 39 40 44 44 46 48 49 49 51 51 54 56 59 61 57 52 51 68 63 55 36 23 21 29 20 20 27 15 20 19 30
23 15 7 2 8 14 17 22 24 28 32 34 37 40 43 45 46 47 50 52 53 55 52 54 56 57 60 60 54 54 59 55 56 35 16 11 20 7 11 12 21 27 22
26 20 12 6 6 12 15 18 22 26 29 34 36 40 41 42 44 47 49 52 54 57 57 54 54 56 56 57 57 50 53 59 59 62 34 23 12 17 23 27 25 24 24
34 24 16 11 6 10 14 18 22 26 32 34 35 37 38 39 40 43 45 47 50 52 54 52 47 50 53 54 55 56 48 46 53 65 51 28 20 21 13 22 28 23 23
32 28 21 14 8 11 13 17 22 29 34 34 33 35 36 37 39 39 41 43 44 46 49 50 50 45 48 51 52 55 56 49 47 50 58 39 21 13 12 22 17 20 11
38 32 25 17 11 12 14 17 22 29 35 33 35 36 39 40 40 40 40 41 41 42 44 47 48 49 45 46 50 52 56 55 49 49 55 56 38 19 17 17 15 21 21
46 37 30 21 16 15 14 18 23 31 33 36 39 40 42 45 46 46 45 43 42 40 40 43 46 48 48 44 44 48 51 56 50 48 49 52 52 33 14 11 15 18 17
48 42 34 23 20 18 16 19 23 30 35 41 43 44 45 46 47 48 49 49 46 41 38 38 40 42 45 45 43 44 48 52 57 46 47 48 54 49 27 15 16 23 28
52 47 38 29 26 21 18 20 25 29 36 41 39 39 39 42 46 49 50 48 45 43 38 35 35 37 38 41 42 38 41 45 50 52 40 44 49 54 47 26 13 9 10
58 51 42 34 32 25 23 20 24 29 33 31 31 35 39 43 47 50 52 51 47 42 36 33 31 32 32 33 38 38 36 39 43 49 45 34 42 47 53 36 24 8 3
61 55 47 41 37 29 23 20 23 26 24 22 27 32 38 42 46 49 50 48 45 40 34 31 28 27 28 29 32 34 34 35 38 43 47 42 29 33 46 41 28 18 10
69 61 51 46 40 32 23 18 20 21 16 19 22 29 36 42 46 47 48 48 43 38 33 28 26 25 26 28 28 28 29 31 34 40 43 47 44 30 32 42 33 24 19
74 67 60 52 41 31 22 17 17 14 11 14 21 27 33 39 44 46 46 46 44 38 33 29 26 23 24 30 33 26 20 23 28 32 37 42 47 43 29 33 34 26 23
74 67 61 56 42 33 23 16 15 11 7 11 18 24 30 36 41 42 44 44 44 41 38 31 28 24 24 27 35 30 20 18 18 23 29 34 42 45 42 27 32 33 26
72 66 57 51 40 32 24 17 17 11 3 7 13 19 27 33 37 41 43 46 44 41 38 33 30 28 25 26 34 34 25 25 20 17 21 28 33 39 43 32 23 27 29
71 67 59 52 44 33 24 21 19 13 5 2 8 16 24 29 35 39 42 44 46 44 41 36 30 31 29 26 33 34 28 25 24 17 17 20 25 32 38 36 31 25 26
69 65 60 50 40 34 27 27 22 16 9 4 4 12 18 25 32 35 38 42 45 45 45 42 37 32 31 26 33 36 31 29 27 23 21 18 19 26 31 34 27 27 23
71 67 62 54 43 36 33 31 25 20 13 7 2 8 13 20 26 30 34 39 42 45 47 48 46 45 40 32 32 36 33 31 28 24 25 22 16 21 25 27 21 19 19
74 68 61 52 45 40 39 34 29 23 17 11 4 4 9 15 21 26 30 34 38 42 46 49 51 52 50 44 41 37 37 31 29 22 23 22 18 12 15 22 22 20 20
75 69 63 54 48 45 43 36 32 27 20 15 8 2 4 9 16 22 27 30 34 37 42 47 51 54 54 59 62 54 43 31 29 27 21 19 13 8 11 14 19 18 20
72 66 58 52 49 49 45 38 34 30 24 20 12 5 2 6 11 16 22 26 30 34 38 42 46 53 56 56 50 50 48 40 38 30 17 13 7 1 3 9 16 19 15
71 65 56 52 52 50 45 42 38 34 27 23 16 10 6 5 8 12 16 21 25 26 28 32 37 41 40 43 48 50 46 34 31 14 11 7 3 2 6 5 10 17 19
Wind_Direction_850mb
259 317 330 346 358 347 354 351 358 5 5 8 9 10 4 360 0 6 8 9 8 5 3 0 1 12 10 0 339 1 339 310 300 292 292 272 282 279 263 250 215 214 238
201 266 322 347 341 332 346 349 1 0 3 6 6 6 2 359 358 360 3 6 8 8 7 4 4 11 13 8 4 354 354 326 303 280 301 289 278 260 256 262 257 255 251
199 228 301 340 311 334 347 353 358 353 357 358 359 356 356 358 358 357 359 2 4 7 5 7 6 6 12 12 7 5 360 357 325 265 266 303 281 292 257 253 258 264 262
203 218 252 326 324 346 343 345 347 350 352 352 353 356 357 358 358 356 358 358 1 4 6 6 8 7 9 11 8 8 3 360 3 325 305 276 260 266 278 273 271 261 264
201 215 246 342 327 346 344 337 343 347 348 348 351 355 356 356 354 356 0 2 2 3 4 7 7 10 8 11 7 6 5 5 355 350 338 306 280 267 260 284 292 289 262
198 211 244 346 330 338 335 338 344 345 343 347 349 352 354 354 353 357 359 2 2 1 3 5 8 9 9 8 16 0 4 3 9 354 337 347 307 293 255 286 289 294 296
195 197 205 220 293 327 335 338 344 340 340 344 346 348 352 353 354 358 1 0 2 2 3 2 4 8 9 9 11 12 359 5 7 7 340 315 331 294 282 281 272 278 274
194 206 200 214 276 310 325 334 335 334 335 338 340 342 346 350 352 355 356 358 359 1 2 3 0 2 6 7 11 13 14 2 1 1 1 340 312 296 270 278 277 276 268
196 206 202 215 256 285 310 321 326 326 329 335 337 339 341 343 345 346 347 349 351 356 358 1 3 2 2 5 8 11 11 13 2 4 4 4 334 301 312 264 261 273 269
197 203 209 218 241 262 293 307 315 321 326 331 333 334 334 335 334 335 334 335 339 344 350 356 1 4 1 360 6 9 11 12 7 6 2 9 6 314 285 284 273 250 243
202 205 208 216 233 249 275 294 309 320 324 326 327 327 328 325 324 323 322 321 323 328 336 346 354 360 2 359 2 6 13 12 11 4 8 5 12 5 309 290 261 250 241
203 205 209 215 224 241 261 284 305 315 321 322 327 329 330 331 332 329 321 313 307 311 319 328 340 351 358 359 2 3 8 14 10 13 7 10 8 17 2 319 271 266 267
194 201 205 212 222 234 250 274 298 313 319 323 332 339 344 348 347 345 341 335 320 303 300 309 321 336 348 355 360 3 5 12 13 11 14 13 10 9 10 4 343 296 254
198 201 203 209 220 228 246 273 297 313 319 329 342 348 348 351 351 348 344 343 338 325 305 300 308 320 334 346 354 2 1 6 14 16 15 19 16 9 7 7 11 344 302
202 205 204 208 219 227 241 268 296 310 319 335 349 352 352 354 355 351 347 345 345 339 326 308 302 310 321 339 349 357 359 360 8 18 19 16 16 18 14 9 20 30 30
205 205 207 210 217 227 236 266 293 303 318 338 357 360 356 357 358 354 351 349 348 345 339 326 318 313 318 322 332 350 358 356 0 9 19 16 15 20 22 15 22 32 36
206 205 207 212 218 224 237 263 284 282 312 345 6 4 359 1 0 358 355 354 355 351 347 341 334 326 320 316 337 335 354 355 354 1 9 16 17 17 28 19 16 28 31
208 207 208 211 212 219 233 252 258 259 303 3 12 5 3 6 4 2 2 3 3 360 355 349 343 342 332 327 351 325 342 342 352 354 2 9 14 14 15 21 19 20 27
211 209 210 210 207 215 230 233 232 238 267 20 15 9 8 9 7 8 10 10 10 11 8 1 351 347 348 337 353 348 336 334 349 343 351 0 11 13 12 18 23 13 19
210 205 203 201 204 214 219 216 216 219 188 51 21 15 14 12 12 13 15 16 17 16 15 11 1 349 346 352 359 355 342 339 336 338 345 359 7 15 12 16 16 18 11
200 198 198 200 202 210 208 207 207 204 182 163 40 25 18 12 17 17 17 21 22 24 23 20 11 356 346 350 4 2 345 339 333 333 332 358 5 14 16 17 23 12 11
188 191 192 195 201 204 203 203 201 197 184 180 98 37 20 16 17 19 22 23 23 25 26 24 22 18 9 1 354 357 353 344 327 324 322 345 5 11 13 19 23 11 20
184 188 193 195 198 200 200 200 202 195 189 190 177 50 18 15 13 16 23 23 23 21 20 20 18 17 15 13 6 355 343 335 329 316 308 324 346 8 8 20 24 24 27
186 188 191 196 199 197 200 198 200 195 192 196 198 176 14 13 10 8 15 18 18 19 16 11 13 11 10 14 3 355 349 331 312 294 296 306 329 355 10 22 35 36 29
188 192 195 199 199 199 200 199 199 199 195 202 209 218 296 357 3 6 6 10 10 12 11 6 5 3 6 6 356 352 345 339 321 301 283 279 285 258 70 38 46 45 35
190 192 196 201 200 201 199 200 199 201 201 209 215 224 250 311 343 1 2 360 1 4 5 2 357 358 358 355 358 355 352 354 343 330 262 258 268 258 68 56 46 53 48